Location: Arrodets-la-Barthe
(43.0306°N, 0.2829°E)
Time: 14:01:28
(UTC+00:00)

Okean O Rocket - Pass Details

Date: 24 October 2021
Orbit: 623 x 644 km, 98.2° (Epoch: 07 December)

Event Time Altitude Azimuth Distance (km) Brightness Sun altitude
Rises 17:33:55 0° 144° (SE) 2,892 4.7 -6.5°
Reaches altitude 10° 17:36:13 10° 136° (SE) 1,992 3.8 -6.9°
Maximum altitude 17:40:11 36° 70° (ENE) 992 2.1 -7.7°
Drops below altitude 10° 17:44:11 10° 3° (N) 2,013 4.1 -8.4°
Sets 17:46:31 0° 355° (N) 2,928 5.0 -8.8°
